STARLINK-32280

Last updated on Sat Sep 28 2024 00:02:03 GMT+0000 (Coordinated Universal Time)

1 60736U 24152S 24271.58334491 -.01557616 00000+0 -43263-1 0 9990 2 60736 53.1594 201.5865 0001019 79.4661 258.7992 15.39636247 6028
UTC large
Height (km)
Speed (km/s)
/
Latitude / Longitude
Inclination (degrees)
Orbital Period (minutes)
Azimuth
Elevation
Range (km)
Doppler Factor

Next 0 passes for location: London (51.5072 / 0.1276)

Sorry there are no passes over London.